Printer-friendly version

IAU Minor Planet Center

Minor Planet Center

MPEC 2006-S02 : 2006 RG2

The following Minor Planet Electronic Circular may be linked-to from your own Web pages, but must not otherwise be redistributed electronically.


Read MPEC 2006-S01 Read MPEC 2006-S03


M.P.E.C. 2006-S02                                Issued 2006 Sept. 16, 10:28 UT

     The Minor Planet Electronic Circulars contain information on unusual
         minor planets and routine data on comets.  They are published
   on behalf of Commission 20 of the International Astronomical Union by the
          Minor Planet Center, Smithsonian Astrophysical Observatory,
                          Cambridge, MA 02138, U.S.A.

                  Supported in part by the Brinson Foundation
                  Supported in part by the TABASGO Foundation
             Prepared using the Tamkin Foundation Computer Network

                              MPC@CFA.HARVARD.EDU
          URL http://cfa-www.harvard.edu/iau/mpc.html  ISSN 1523-6714

                                   2006 RG2

Observations:
     K06R02G* C2006 09 14.46125 02 43 50.70 +09 16 51.1          18.7 V ES002703
     K06R02G  C2006 09 14.46876 02 43 51.27 +09 16 55.8          19.3 V ES002703
     K06R02G  C2006 09 14.47631 02 43 51.88 +09 17 00.2          19.5 V ES002703
     K06R02G  C2006 09 14.48384 02 43 52.39 +09 17 04.9          18.5 V ES002703
     K06R02G  C2006 09 14.49859 02 43 53.53 +09 17 14.3          18.7 V ES002703
     K06R02G  C2006 09 14.49947 02 43 53.53 +09 17 14.9          18.4 V ES002703
     K06R02G  C2006 09 14.50124 02 43 53.70 +09 17 14.5          18.4 V ES002703
     K06R02G  C2006 09 15.31726 02 44 58.93 +09 25 23.0          19.0   ES002H55
     K06R02G  C2006 09 15.31971 02 44 59.10 +09 25 24.4          18.9   ES002H55
     K06R02G  C2006 09 15.32219 02 44 59.28 +09 25 25.5          19.0   ES002H55
     K06R02G  C2006 09 15.44319 02 45 08.79 +09 26 41.2          19.6 V ES002703
     K06R02G  C2006 09 15.44983 02 45 09.27 +09 26 45.2          19.5 V ES002703
     K06R02G  C2006 09 15.45645 02 45 09.71 +09 26 48.5          19.4 V ES002703
     K06R02G  C2006 09 15.46306 02 45 10.25 +09 26 53.0                 ES002703
     K06R02G  C2006 09 16.35863 02 46 21.86 +09 36 00.7          19.1 V ES002703
     K06R02G  C2006 09 16.36462 02 46 22.36 +09 36 04.5          19.1 V ES002703
     K06R02G  C2006 09 16.37060 02 46 22.87 +09 36 09.0          19.2 V ES002703
     K06R02G  C2006 09 16.37655 02 46 23.26 +09 36 11.4          20.1 V ES002703

Observer details:
703 Catalina Sky Survey.  Observer E. J. Christensen.  Measurers E. C. Beshore,
    E. J. Christensen, G. J. Garradd, A. R. Gibbs, A. D. Grauer, R. E. Hill,
    R. A. Kowalski, S. M. Larson, R. H. McNaught.  0.68-m Schmidt + CCD.
H55 Astronomical Research Observatory, Charleston.  Observer R. Holmes.
    0.81-m f/4.0 astrograph + CCD.

Orbital elements:
2006 RG2                                                 Earth MOID = 0.1111 AU
Epoch 2006 Sept. 22.0 TT = JDT 2454000.5                MPC
M 349.91173              (2000.0)            P               Q
n   0.11357651     Peri.   67.02386     -0.18234264     -0.97923986
a   4.2228958      Node    33.86249     +0.83386065     -0.20173061
e   0.7679126      Incl.    9.14378     +0.52098712     -0.01985072
P   8.68           H   17.0           G   0.15           U   9
Residuals in seconds of arc
060914 703  0.1+  0.4-    060914 703  0.3-  0.6-    060915 703  0.4-  0.3-
060914 703  0.1+  0.1-    060915 H55  0.1-  0.3-    060915 703  0.2+  0.2+
060914 703  0.7+  0.2-    060915 H55  0.4-  0.3-    060916 703  0.7-  0.1-
060914 703  0.2-  0.1+    060915 H55  0.5-  0.7-    060916 703  0.1-  0.0
060914 703  0.2+  0.7+    060915 703  0.9+  0.5+    060916 703  0.7+  0.8+
060914 703  0.8-  0.8+    060915 703  0.5+  0.4+    060916 703  0.2-  0.5-

Ephemeris:
2006 RG2                 a,e,i = 4.22, 0.77, 9                   q = 0.9801
Date    TT    R. A. (2000) Decl.     Delta      r     Elong.  Phase     V
2006 09 12    02 40.60   +08 53.1    0.877    1.695   128.2    27.8    19.1
2006 09 22    02 53.92   +10 38.1    0.723    1.595   134.3    26.8    18.5
2006 10 02    03 07.98   +12 55.1    0.583    1.496   140.2    25.4    17.9
2006 10 12    03 24.00   +16 10.1    0.457    1.399   145.6    23.8    17.1
2006 10 22    03 44.71   +21 10.5    0.346    1.306   149.6    22.7    16.4
2006 11 01    04 17.42   +29 23.3    0.253    1.218   149.8    24.2    15.6
2006 11 11    05 25.13   +42 34.7    0.185    1.139   140.7    33.4    15.0
2006 11 21    08 11.21   +55 02.7    0.154    1.072   119.5    53.4    15.0
2006 12 01    11 24.98   +48 17.6    0.169    1.021    97.0    73.5    15.8
2006 12 11    12 49.78   +35 25.4    0.215    0.989    85.0    82.6    16.5
2006 12 21    13 28.12   +26 05.8    0.270    0.980    81.3    82.9    17.0
2006 12 31    13 49.96   +19 39.2    0.325    0.995    82.5    78.6    17.3
2007 01 10    14 03.92   +15 00.0    0.375    1.031    86.5    72.2    17.5
2007 01 20    14 12.28   +11 34.6    0.418    1.086    92.6    64.8    17.6
2007 01 30    14 15.25   +09 04.0    0.452    1.157   100.5    56.8    17.7
2007 02 09    14 12.59   +07 15.8    0.482    1.238   110.2    48.4    17.7
2007 02 19    14 04.08   +06 01.0    0.509    1.327   121.5    39.4    17.7
2007 03 01    13 50.19   +05 09.7    0.541    1.421   134.2    30.0    17.7
2007 03 11    13 32.57   +04 31.8    0.584    1.519   147.7    20.5    17.8
2007 03 21    13 13.65   +03 58.9    0.644    1.618   161.1    11.5    17.8
2007 03 31    12 56.15   +03 23.8    0.725    1.718   171.2     5.1    17.9
2007 04 10    12 42.03   +02 43.1    0.829    1.819   167.1     7.1    18.4
2007 04 20    12 32.07   +01 56.1    0.955    1.919   156.6    12.0    19.0
2007 04 30    12 26.31   +01 02.7    1.101    2.018   146.3    16.1    19.6
2007 05 10    12 24.20   +00 04.0    1.265    2.116   136.6    19.1    20.1
2007 05 20    12 25.12   -00 59.1    1.445    2.213   127.6    21.2    20.6
2007 05 30    12 28.48   -02 06.0    1.637    2.308   119.2    22.5    21.0
2007 06 09    12 33.73   -03 15.8    1.839    2.402   111.3    23.2    21.3
2007 06 19    12 40.48   -04 27.7    2.050    2.495   103.8    23.3    21.6
2007 06 29    12 48.41   -05 41.3    2.265    2.586    96.5    23.0    21.9

Timothy B. Spahr             (C) Copyright 2006 MPC           M.P.E.C. 2006-S02

Read MPEC 2006-S01 Read MPEC 2006-S03


Our Web policy. Index to the CBAT/MPC/ICQ pages.


Valid HTML 4.01!